SES-9

Last updated on Thu Aug 13 2026 00:03:00 GMT+0000 (Coordinated Universal Time)

1 41380U 16013A 26224.59280934 -.00000363 00000+0 00000+0 0 9994 2 41380 0.0078 39.2807 0001867 80.3699 163.0855 1.00270885 38009
UTC large
Height (km)
Speed (km/s)
/
Latitude / Longitude
Inclination (degrees)
Orbital Period (minutes)
Azimuth
Elevation
Range (km)
Doppler Factor

Next 0 passes for location: London (51.5072 / 0.1276)

No passes found over London.
SES-9